Bangor, ME

10:13 AM EDT on September 30, 2016 (GMT -0400)
Bangor International

Weather History for KBGR - July, 2013

Change the Weather History Date:

Saturday, July 13, 2013

  Actual Average Record
Temperature  
Mean Temperature 68 °F 69 °F  
Max Temperature 83 °F 80 °F 94 °F (1948)
Min Temperature 52 °F 58 °F 44 °F (1971)
Degree Days  
Heating Degree Days 0 1  
Month to date heating degree days 3 13  
Since 1 June heating degree days 103 120  
Since 1 July heating degree days 3 13  
Cooling Degree Days 3 4  
Month to date cooling degree days 78 50  
Year to date cooling degree days 143 108  
Since 1 June cooling degree days 135 102  
Growing Degree Days 18 (Base 50)    
Moisture  
Dew Point 56 °F    
Average Humidity 70    
Maximum Humidity 100    
Minimum Humidity 39    
Precipitation  
Precipitation 0.00 in 0.11 in 1.61 in (1951)
Month to date precipitation 1.11 1.38  
Year to date precipitation 17.86 21.19  
Snow  
Snow 0.00 in 0.00 in 0.00 in (2002)
Month to date snowfall 0.0 0.0  
Since 1 June snowfall 0.0 0.0  
Since 1 July snowfall 0.0 0.0  
Snow Depth 0.00 in    
Sea Level Pressure  
Sea Level Pressure 30.27 in    
Wind  
Wind Speed 2 mph (South)    
Max Wind Speed 15 mph    
Max Gust Speed 17 mph    
Visibility 10 miles    
Events      
T = Trace of Precipitation, MM = Missing Value Source: NWS Daily Summary

Daily Weather History Graph

Daily Weather History Graph

Search for Another Location

Airport or City:

Trip Planner

Search our weather history database for the weather conditions in past years. The results will help you decide how hot, cold, wet, or windy it might be!

Date:

Astronomy

Jul. 13, 2013 Rise Set
Actual Time 5:02 AM EDT 8:19 PM EDT
Civil Twilight 4:26 AM EDT 8:55 PM EDT
Nautical Twilight 3:39 AM EDT 9:42 PM EDT
Astronomical Twilight 2:41 AM EDT 10:39 PM EDT
Moon 10:30 AM EDT (7/13) 10:41 PM EDT (7/13)
Length of Visible Light 16h 29m
Length of Day
15h 17m
Waxing Crescent, 25% of the Moon is Illuminated
Jul 13
Waxing Crescent
Jul 15
First Quarter
Jul 22
Full
Jul 29
Last Quarter
Aug 6
New

Hourly Weather History & Observations

Time (EDT) Temp. Heat Index Dew Point Humidity Pressure Visibility Wind Dir Wind Speed Gust Speed Precip Events Conditions
12:53 AM 57.0 °F - 55.9 °F 96% 30.23 in 10.0 mi Calm Calm - N/A   Partly Cloudy
1:53 AM 57.9 °F - 57.0 °F 97% 30.23 in 10.0 mi Calm Calm - N/A   Partly Cloudy
2:53 AM 55.0 °F - 53.1 °F 93% 30.25 in 10.0 mi Calm Calm - N/A   Partly Cloudy
3:53 AM 55.9 °F - 53.1 °F 90% 30.27 in 10.0 mi Calm Calm - N/A   Scattered Clouds
4:53 AM 53.1 °F - 53.1 °F 100% 30.27 in 9.0 mi Calm Calm - N/A   Scattered Clouds
5:53 AM 55.9 °F - 55.0 °F 97% 30.27 in 10.0 mi Calm Calm - N/A   Mostly Cloudy
6:53 AM 61.0 °F - 57.9 °F 90% 30.27 in 10.0 mi Calm Calm - N/A   Mostly Cloudy
7:53 AM 66.9 °F - 59.0 °F 76% 30.29 in 10.0 mi North 3.5 mph - N/A   Scattered Clouds
8:53 AM 71.1 °F - 57.9 °F 63% 30.31 in 10.0 mi NE 3.5 mph - N/A   Partly Cloudy
9:53 AM 75.0 °F - 55.9 °F 51% 30.31 in 10.0 mi Calm Calm - N/A   Partly Cloudy
10:53 AM 79.0 °F - 55.0 °F 44% 30.30 in 10.0 mi Calm Calm - N/A   Partly Cloudy
11:53 AM 80.1 °F 79.9 °F 53.1 °F 39% 30.30 in 10.0 mi West 4.6 mph - N/A   Partly Cloudy
12:53 PM 81.0 °F 80.4 °F 53.1 °F 38% 30.28 in 10.0 mi Variable 4.6 mph - N/A   Partly Cloudy
1:53 PM 82.9 °F 82.0 °F 55.0 °F 38% 30.27 in 10.0 mi Calm Calm - N/A   Partly Cloudy
2:53 PM 82.9 °F 82.4 °F 57.0 °F 41% 30.27 in 10.0 mi Variable 5.8 mph - N/A   Partly Cloudy
3:53 PM 82.0 °F 82.0 °F 57.9 °F 44% 30.26 in 10.0 mi South 11.5 mph - N/A   Scattered Clouds
4:53 PM 81.0 °F 81.3 °F 59.0 °F 47% 30.25 in 10.0 mi South 10.4 mph - N/A   Partly Cloudy
5:53 PM 78.1 °F - 57.9 °F 50% 30.25 in 10.0 mi South 9.2 mph - N/A   Partly Cloudy
6:53 PM 75.9 °F - 57.9 °F 54% 30.25 in 10.0 mi South 8.1 mph - N/A   Partly Cloudy
7:53 PM 73.0 °F - 57.0 °F 57% 30.25 in 10.0 mi South 8.1 mph - N/A   Partly Cloudy
8:53 PM 70.0 °F - 57.9 °F 65% 30.27 in 10.0 mi South 4.6 mph - N/A   Partly Cloudy
9:53 PM 68.0 °F - 57.9 °F 70% 30.27 in 10.0 mi South 6.9 mph - N/A   Clear
10:53 PM 66.9 °F - 57.9 °F 73% 30.27 in 10.0 mi South 6.9 mph - N/A   Clear
11:53 PM 66.0 °F - 57.9 °F 75% 30.27 in 10.0 mi South 5.8 mph - N/A   Clear